Погода Зея

Погода Зея : погода сейчас, прогноз погоды и архив. Всё, что Вы хотите узнать о погоде Зея!

Хотите узнать прогноз погоды Зея? Тогда Вам сюда: Погода Зея

Поиск расширенной информации на нашем сайте:

Другие новости

Новости СМИ2

Главная страница сайта

Новости сайта

03.07.2017

Напоминаем, что на нашем специализированном сайте Метеоцентр.Азия вы можете получить высокодетализированные автоматические прогнозы погоды по пунктам России, СНГ и мира в авиационном формате (включающие направление и скорость ветра, видимость, явления погоды, количество и форму облачности, нижнюю и верхнюю границу облачности).


Погода Зея - сегодня

Время (UTC), дата Ветер
(°,м/с) 
Видим.   Явления Облачность Т
(°С)
Тd
(°С)
f(%) Тe
(°С)
Pmin
(гПа)
dP
(гПа)
Po
(мм)
O2
(г/м3)
Тmin Tmax R s Состояние
почвы
00 17.09.17 тихо ()   20000 м    10/10 600 м 
[Sc]
+12.7 +9.9 83 +14  1008.4  0.1  736  282  +9.6        сухая 
03 17.09.17 150 (ЮВ) 10 км    10/10 300 м кучево-дожд. 
[Cb cap]
+13.9 +10.3 79 +17  1007.6  -0.8  735  280           
06 17.09.17 тихо ()   20000 м    10/10 600 м кучево-дожд. 
[Cb cap]
+15 +10.8 76 +18  1006.8  -0.7  735  279           
09 17.09.17 тихо ()   20000 м  в посл. час ливневой дождь  10/10 600 м кучево-дожд. 
[Cb cap]
+13.9 +12 88 +18  1007.2  0.3  735  279           
12 17.09.17 тихо ()   20000 м  {ливн. осадки}  10/10 600 м кучево-дожд. 
[Cb cap]
+13.1 +11.6 91 +17  1007.2  -0.1  735  280    +15.1  0.0     
15 17.09.17 тихо ()   20000 м    10/10 600 м кучево-дожд. 
[Cb cap]
+12.2 +11.2 94 +15  1006.9  -0.4  735  281           
18 17.09.17 тихо ()   20000 м    10/10 600 м кучево-дожд. 
[Cb cap]
+11.5 +10.5 94 +14  1006.1  -0.8  734  282           
21 17.09.17 030 (СВ) 20000 м    8/8 600 м кучево-дожд. 
[Cb cap]
+12 +10.2 89 +15  1005.3  -0.8  733  281           
00 18.09.17 030 (СВ) 20000 м    8/0 верхняя 
[Ci sp]
+14.7 +10 73 +18  1004.6  -0.4  733  278  +11        сухая 
03 18.09.17 360 (С) 20000 м    10/3 600 м кучево-дожд., верхняя 
[Cb cap|Ci sp]
+18.4 +10 58 +21  1003  -1.2  732  275           
06 18.09.17 010 (С) 20000 м    10/10 600 м кучево-дожд. 
[Cb cap]
+16.2 +10.6 69 +20  1002.5  -0.7  732  276           
09 18.09.17 060 (СВ) 20000 м    10/10 600 м кучево-дожд. 
[Cb cap]
+16 +11 72 +20  1002.5  732  276           
12 18.09.17 020 (С) 20000 м  {ливн. осадки}  4/4 600 м 
[Sc]
+14.8 +11.2 79 +19  1003  0.3  732  278    +18.9  0.0     
15 18.09.17 тихо ()   20000 м    4/4 600 м 
[Sc]
+13.1 +11.2 88 +16  1002.5  -0.6  731  279           
18 18.09.17 тихо ()   20000 м  слаб. ливневой дождь  10/10 600 м кучево-дожд. 
[Cb cap]
+12.2 +10.7 91 +15  1002.9  0.3  732  280           
21 18.09.17 тихо ()   20000 м  {ливн. осадки}  10/10 600 м кучево-дожд. 
[Cb cap]
+11.6 +10.7 94 +14  1003  732  281           
00 19.09.17 360 (С) 20000 м  {ливн. осадки}  8/5 600 м верхняя 
[St|Ci sp]
+15.5 +10.4 72 +18  1002.8  0.2  732  277  +11.3      влажная 
03 19.09.17 010 (С) 20000 м    8/8 600 м 
[Sc]
+16.9 +9.5 62 +19  1003.6  0.9  733  276           
06 19.09.17 010 (С) 20000 м    4/0 средняя 
[Ac trans]
+18 +8.3 53 +19  1003.5  733  275           
09 19.09.17 030 (СВ) 20000 м    3/0 средняя 
[Ac trans]
+16 +8.1 59 +17  1004.2  0.5  733  278           
12 19.09.17 340 (С) 20000 м    10/6 600 м средняя 
[Sc|Ac trans]
+14.6 +4.8 52 +16  1005.5  1.1  734  280    +19       
15 19.09.17 340 (С) 20000 м    6/6 600 м 
[Sc]
+11.9 +2 51 +13  1006.7  0.9  734  283           
18 19.09.17 тихо ()   20000 м    ясно 
+6.5 +1.4 70 +7  1008  0.8  735  289           
21 19.09.17 тихо ()   20000 м    ясно 
+2.6 -0.2 82 +3  1008.9  0.5  735  293           
00 20.09.17 150 (ЮВ) 20000 м    6/0 верхняя 
[Ci fib]
+8.9 +0.4 55 +10  1009  0.6  736  287  +1.6        сухая 
Время (UTC), дата Ветер
(°,м/с) 
Видим.   Явления Облачность Т
(°С)
Тd
(°С)
f(%) Тe
(°С)
Pmin
(гПа)
dP
(гПа)
Po
(мм)
O2
(г/м3)
Тmin Tmax R s Состояние
почвы

Для получения пояснительной информации подведите курсор к названию столбца.

ПОГОДА Зея - архив

Всё, что Вы хотите узнать о погоде Зея - удобно и подробно!

Выберите нужную дату (начиная с 1 января 2015* года) и нажмите кнопку "Найти".
Будут отображены архивные сводки погоды по пункту Зея, начиная с указанной даты.


Отображать данные в формате CSV (для использования в таблицах Excel)


Внимание! Наш архив погоды предназначен исключительно для личного некоммерческого использования в познавательных целях. Если Вам необходимы официальные справки о состоянии погоды (для производственных, юридических, коммерческих и т.п. целей), обращайтесь в органы Росгидромета.

*Примечание: данная дата относится к архиву по метеостанциям СССР (Россия, СНГ, Балтия).
Архив по метеостанциям Зарубежной Европы и Азии (кроме Китая) хранится 10 дней, по другим регионам земного шара (Китай, Африка, Америка, Австралия, Океания) - 1 день.

Зея - район местоположения метеостанции


Название, широта, долгота, высота метеостанции:
Зея 53.7°ш. 127.3°д. 229 м над ур. моря [Российская Федерация]

Дополнительная информация

В oтличие oт бoльшинства пoгoдных сайтoв мы публикуем пoдрoбную метеoинфoрмацию в детальнoм прoфессиoнальнoм фoрмате.

Характеристики температуры и влажнoсти вoздуха измеряются на высoте 2 м в тени вдали oт зданий и деревьев.
Скoрoсть ветра измеряется на высoте 10 м (на урoвне рoста челoвека скoрoсть ветра ниже в 1.5-2 раза). Если метеoстанция нахoдится в гoрoде или в лесу, тo скoрoсть ветра занижена на 2-4 м/с пo сравнению с oткрытым местoм. Скoрoсть ветра над акватoриями крупных рек и oзёр, а также на вершинах хoлмoв на 2-5 м/с выше, чем в oбычных услoвиях.
Атмoсфернoе давление в разных тoчках местнoсти мoжет значительнo oтличаться oт давления на метеoстанции, в зависимoсти oт услoвий рельефа (при пoдъёме на 10 м давление пoнижается примернo на 1 мм рт.ст.).